Location: DARK SKY Beskydy - Park tmavé oblohy, www.darkskybeskydy.cz
(49.4926°N, 18.5016°E)
Time: 11:21:56
(UTC+02:00)

BlueWalker 3 - Pass Details

Date: 20 June 2024
Orbit: 480 x 491 km, 53.2° (Epoch: 23 July)

Event Time Altitude Azimuth Distance (km) Brightness Sun altitude
Rises 01:00:19 0° 281° (W) 2,537 5.6 -17.0°
Reaches altitude 10° 01:02:33 10° 288° (WNW) 1,657 4.7 -17.0°
Maximum altitude 01:06:10 46° 2° (N) 659 3.0 -17.0°
Drops below altitude 10° 01:09:46 10° 77° (ENE) 1,656 4.8 -16.9°
Sets 01:12:00 0° 84° (E) 2,536 5.7 -16.9°
